CW7364 Weather Reports


Display with metric or nautical units.
time (UTC)temp
F
wind
direction
speed
MPH
gust
MPH
rain 1hr
in
rain 24hr
in
rain mn
in
humidity
%
barometer
mb
20260905214037 99 135 5.0 8.0 0.00 0.00 0.00 42 1010.3
20260905213017 99 135 6.0 13.0 0.00 0.00 0.00 41 1010.4
20260905212037 99 180 3.0 6.0 0.00 0.00 0.00 42 1010.3
20260905211037 99 90 5.0 11.0 0.00 0.00 0.00 42 1010.4
20260905210017 99 113 5.0 12.0 0.00 0.00 0.00 42 1010.7
20260905205015 99 293 2.0 5.0 0.00 0.00 0.00 41 1010.9
20260905204017 99 113 6.0 11.0 0.00 0.00 0.00 41 1011.0
20260905203017 99 135 6.0 9.0 0.00 0.00 0.00 40 1011.2
20260905202037 99 180 7.0 12.0 0.00 0.00 0.00 40 1011.4
20260905201017 99 180 4.0 8.0 0.00 0.00 0.00 42 1011.6
20260905200037 98 135 6.0 15.0 0.00 0.00 0.00 42 1011.7
20260905195017 99 113 7.0 15.0 0.00 0.00 0.00 42 1011.8
20260905194037 99 135 2.0 5.0 0.00 0.00 0.00 42 1011.9
20260905193017 98 158 6.0 11.0 0.00 0.00 0.00 43 1012.1
20260905192017 98 135 7.0 11.0 0.00 0.00 0.00 44 1012.3
20260905191016 98 113 6.0 14.0 0.00 0.00 0.00 43 1012.5
20260905190017 97 90 8.0 15.0 0.00 0.00 0.00 44 1012.5
20260905185017 98 180 4.0 12.0 0.00 0.00 0.00 44 1012.7
20260905184017 98 113 7.0 13.0 0.00 0.00 0.00 44 1012.8
20260905183016 97 135 6.0 11.0 0.00 0.00 0.00 46 1013.1
20260905182017 97 135 7.0 12.0 0.00 0.00 0.00 45 1013.1
20260905181016 97 158 4.0 10.0 0.00 0.00 0.00 47 1013.1
20260905180016 95 135 7.0 13.0 0.00 0.00 0.00 47 1013.4
20260905175016 95 113 4.0 10.0 0.00 0.00 0.00 49 1013.5
20260905174016 95 113 8.0 15.0 0.00 0.00 0.00 49 1013.7
20260905173036 95 90 5.0 10.0 0.00 0.00 0.00 50 1013.7
20260905172016 94 90 6.0 10.0 0.00 0.00 0.00 51 1013.9
20260905171016 94 135 6.0 11.0 0.00 0.00 0.00 51 1014.0
20260905170037 94 135 6.0 14.0 0.00 0.00 0.00 52 1014.0
20260905165016 94 180 3.0 7.0 0.00 0.00 0.00 53 1014.1
20260905164016 93 113 4.0 11.0 0.00 0.00 0.00 53 1014.0
20260905163017 94 135 3.0 10.0 0.00 0.00 0.00 51 1014.1
20260905162016 94 180 2.0 5.0 0.00 0.00 0.00 52 1014.1
20260905161016 92 113 2.0 6.0 0.00 0.00 0.00 55 1014.1
20260905160016 92 270 3.0 6.0 0.00 0.00 0.00 56 1014.2
20260905155016 92 203 3.0 5.0 0.00 0.00 0.00 56 1014.2
20260905154016 92 225 2.0 3.0 0.00 0.00 0.00 57 1014.2
20260905153016 91 203 2.0 4.0 0.00 0.00 0.00 60 1014.3
20260905152016 90 270 2.0 6.0 0.00 0.00 0.00 61 1014.3
20260905151016 89 225 1.0 6.0 0.00 0.00 0.00 63 1014.2
20260905150016 88 270 2.0 6.0 0.00 0.00 0.00 64 1014.1
20260905145036 88 180 1.0 4.0 0.00 0.00 0.00 66 1014.2
20260905144016 87 180 2.0 4.0 0.00 0.00 0.00 68 1014.0
20260905143016 85 203 2.0 4.0 0.00 0.00 0.00 70 1014.0
20260905142016 85 180 1.0 3.0 0.00 0.00 0.00 71 1013.8
20260905141035 84 203 1.0 4.0 0.00 0.00 0.00 72 1014.0
20260905140016 83 180 1.0 3.0 0.00 0.00 0.00 73 1014.0
20260905135016 83 180 2.0 5.0 0.00 0.00 0.00 74 1014.0
20260905134016 82 203 2.0 5.0 0.00 0.00 0.00 75 1013.9
20260905133015 81 203 1.0 2.0 0.00 0.00 0.00 77 1013.8
20260905132015 80 0.0 2.0 0.00 0.00 0.00 78 1013.7
20260905131035 79 225 1.0 2.0 0.00 0.00 0.00 81 1013.7
20260905130015 77 0.0 0.0 0.00 0.00 0.00 84 1013.5
20260905125016 75 0.0 0.0 0.00 0.00 0.00 85 1013.4
20260905124015 74 0.0 0.0 0.00 0.00 0.00 86 1013.3
20260905123015 73 0.0 0.0 0.00 0.00 0.00 87 1013.3
20260905122015 73 0.0 0.0 0.00 0.00 0.00 85 1013.2
20260905121017 74 0.0 0.0 0.00 0.00 0.00 84 1013.1
20260905120017 74 0.0 0.0 0.00 0.00 0.00 84 1013.2
20260905115057 74 0.0 0.0 0.00 0.00 0.00 83 1013.2
20260905114017 75 0.0 0.0 0.00 0.00 0.00 83 1013.0
20260905113017 75 225 2.0 4.0 0.00 0.00 0.00 82 1012.9
20260905112017 76 180 1.0 2.0 0.00 0.00 0.00 82 1012.9
20260905111017 76 180 1.0 2.0 0.00 0.00 0.00 82 1012.9
20260905110017 76 180 2.0 3.0 0.00 0.00 0.00 82 1012.9
20260905105017 76 180 1.0 2.0 0.00 0.00 0.00 81 1013.0
20260905104057 76 180 1.0 2.0 0.00 0.00 0.00 81 1012.9
20260905103017 77 180 1.0 2.0 0.00 0.00 0.00 80 1012.8
20260905102017 77 0.0 0.0 0.00 0.00 0.00 79 1012.7
20260905101017 77 180 1.0 2.0 0.00 0.00 0.00 79 1012.7
20260905100017 77 180 1.0 2.0 0.00 0.00 0.00 79 1012.7
20260905095017 77 0.0 0.0 0.00 0.00 0.00 79 1012.7
20260905094017 77 0.0 0.0 0.00 0.00 0.00 79 1012.8
20260905093017 77 0.0 0.0 0.00 0.00 0.00 79 1012.7
20260905092017 77 0.0 0.0 0.00 0.00 0.00 79 1012.7
20260905091017 77 0.0 1.0 0.00 0.00 0.00 77 1012.6
20260905090017 78 0.0 0.0 0.00 0.00 0.00 76 1012.7
20260905085016 79 0.0 0.0 0.00 0.00 0.00 76 1012.6
20260905084017 79 0.0 0.0 0.00 0.00 0.00 75 1012.6
20260905083016 79 180 1.0 2.0 0.00 0.00 0.00 75 1012.6
20260905082016 80 180 1.0 3.0 0.00 0.00 0.00 75 1012.8
20260905081016 80 180 1.0 3.0 0.00 0.00 0.00 75 1012.6
20260905080016 79 180 1.0 2.0 0.00 0.00 0.00 75 1012.7
20260905075036 80 180 1.0 2.0 0.00 0.00 0.00 72 1012.7
20260905074016 81 0.0 0.0 0.00 0.00 0.00 72 1012.9
20260905073016 81 180 1.0 2.0 0.00 0.00 0.00 71 1012.8
20260905072016 82 180 2.0 4.0 0.00 0.00 0.00 71 1012.9
20260905071016 82 203 3.0 7.0 0.00 0.00 0.00 70 1013.0
20260905070016 82 0.0 2.0 0.00 0.00 0.00 69 1012.9
20260905065016 82 158 1.0 3.0 0.00 0.00 0.00 69 1013.0
20260905064016 82 158 1.0 2.0 0.00 0.00 0.00 68 1013.0
20260905063036 82 0.0 0.0 0.00 0.00 0.00 67 1013.0
20260905062016 83 158 1.0 1.0 0.00 0.00 0.00 67 1012.9
20260905061016 83 158 1.0 2.0 0.00 0.00 0.00 66 1013.0
20260905060016 83 158 1.0 3.0 0.00 0.00 0.00 66 1012.9
20260905055036 84 158 1.0 2.0 0.00 0.00 0.00 65 1012.9
20260905054016 84 158 2.0 4.0 0.00 0.00 0.00 65 1012.8
20260905053016 84 158 2.0 4.0 0.00 0.00 0.00 64 1012.8
20260905052036 84 135 2.0 4.0 0.00 0.00 0.00 64 1012.7
20260905051036 84 135 3.0 7.0 0.00 0.00 0.00 64 1012.6
20260905050016 84 135 2.0 4.0 0.00 0.00 0.00 63 1012.5
20260905045016 85 135 2.0 3.0 0.00 0.00 0.00 63 1012.4
20260905043016 85 135 2.0 4.0 0.00 0.00 0.00 62 1012.4
20260905042016 86 135 2.0 4.0 0.00 0.00 0.00 61 1012.5
20260905041017 86 135 3.0 5.0 0.00 0.00 0.00 61 1012.4
20260905040016 86 135 2.0 4.0 0.00 0.00 0.00 61 1012.5
20260905035036 86 135 3.0 5.0 0.00 0.00 0.00 61 1012.3
20260905034036 86 135 3.0 6.0 0.00 0.00 0.00 61 1012.3
20260905033016 87 135 3.0 5.0 0.00 0.00 0.00 60 1012.2
20260905032016 87 135 3.0 7.0 0.00 0.00 0.00 60 1012.2
20260905031016 88 135 3.0 7.0 0.00 0.00 0.00 59 1012.1
20260905030016 88 135 4.0 7.0 0.00 0.00 0.00 59 1012.1
20260905025016 89 135 5.0 8.0 0.00 0.00 0.00 58 1011.9
20260905024056 89 135 5.0 8.0 0.00 0.00 0.00 58 1011.9
20260905023016 89 135 5.0 10.0 0.00 0.00 0.00 58 1011.6
20260905022016 89 135 6.0 10.0 0.00 0.00 0.00 57 1011.5
20260905021016 89 135 5.0 8.0 0.00 0.00 0.00 57 1011.3
20260905020016 89 135 6.0 10.0 0.00 0.00 0.00 56 1011.0
20260905015016 89 113 6.0 9.0 0.00 0.00 0.00 55 1010.8
20260905014016 90 113 6.0 8.0 0.00 0.00 0.00 55 1010.7
20260905013016 90 113 4.0 9.0 0.00 0.00 0.00 54 1010.6
20260905012016 90 113 2.0 4.0 0.00 0.00 0.00 54 1010.6
20260905011016 91 113 3.0 4.0 0.00 0.00 0.00 53 1010.4
20260905010016 91 113 3.0 6.0 0.00 0.00 0.00 52 1010.4
20260905005015 92 113 3.0 4.0 0.00 0.00 0.00 51 1010.3
20260905004035 94 135 4.0 8.0 0.00 0.00 0.00 49 1010.4
20260905003016 94 135 6.0 10.0 0.00 0.00 0.00 49 1010.3
20260905002015 95 135 5.0 8.0 0.00 0.00 0.00 48 1010.3
20260905001015 95 158 7.0 13.0 0.00 0.00 0.00 47 1010.1
20260905000035 96 135 9.0 15.0 0.00 0.00 0.00 47 1010.1
20260904235015 96 158 5.0 10.0 0.00 0.00 0.00 47 1010.0
20260904234015 96 135 8.0 15.0 0.00 0.00 0.00 47 1010.1
20260904233015 96 135 7.0 12.0 0.00 0.00 0.00 46 1010.0
20260904232015 96 135 9.0 14.0 0.00 0.00 0.00 46 1010.0
20260904231035 97 135 10.0 15.0 0.00 0.00 0.00 46 1010.1
20260904230015 97 135 6.0 12.0 0.00 0.00 0.00 47 1010.1
20260904225057 97 135 7.0 12.0 0.00 0.00 0.00 47 1010.3
20260904224015 97 158 8.0 13.0 0.00 0.00 0.00 47 1010.2
20260904223037 98 158 6.0 12.0 0.00 0.00 0.00 46 1010.3
20260904222017 98 113 9.0 14.0 0.00 0.00 0.00 46 1010.3
20260904221017 98 135 10.0 15.0 0.00 0.00 0.00 45 1010.3
20260904220017 98 158 8.0 14.0 0.00 0.00 0.00 44 1010.4
20260904215017 98 135 5.0 11.0 0.00 0.00 0.00 45 1010.4